Location: Crescent
(42.8242°N, 73.7329°W)
Time: 13:14:52
(UTC+00:00)

Transit 4A - Pass Details

Date: 25 February 2026
Orbit: 863 x 978 km, 66.8° (Epoch: 17 March)

Event Time Altitude Azimuth Distance (km) Brightness Sun altitude
Rises 17:21:07 0° 315° (NW) 3,637 10.7 38.2°
Reaches altitude 10° 17:24:23 10° 298° (WNW) 2,702 10.2 38.1°
Maximum altitude 17:28:38 19° 256° (WSW) 2,122 10.2 38.1°
Drops below altitude 10° 17:32:54 10° 213° (SSW) 2,716 11.4 38.0°
Sets 17:36:13 0° 196° (SSW) 3,662 11.9 37.9°
